Weather in La Romana

Dominican Republic     18°25′46″N   68°58′39″W
temp.,
°C
wind,
m/s
gust,
m/s
humid.,
%
clouds,
%
prec.,
mm/h
press.,
hPa
HPBL,
m
27 november, sat
sat2723:00+22ne35805 0.0 101488
02:00+21ne34816 0.0 101366
05:00+21ene33845 0.0 101348
08:00+23nne24767 0.0 1015130
11:00+29ne445319 0.0 10151343
14:00+29nne545292 0.0 10131501
17:00+27nne66626 0.0 1013806
20:00+21ne48836 0.0 1014154
28 november, sun
sun2823:00+21ne398763 0.0 1015167
02:00+21nne36890 0.0 101497
05:00+21nne3490100 0.0 101464
08:00+23nne2680100 0.0 1015162
11:00+30ne555294 0.0 10151594
14:00+31ne544653 0.0 10122040
17:00+27ne676224 0.0 1013786
20:00+22ne499133 0.0 1015200
29 november, mon
mon2923:00+22ne389362 0.0 1015167
02:00+21ene369447 0.0 1014103
05:00+21ne349487 0.0 101363
08:00+23ne25867 0.0 1015148
11:00+30ene345238 0.0 10151574
14:00+31s445244 0.0 10121346
17:00+27sse237341 0.7 1012442
20:00+23ne349018 0.9 101472
30 november, tue
tue3023:00+22ene23950 0.0 101558
02:00+22ne23955 0.0 101444
05:00+21nne23955 0.0 101449
08:00+23nne249010 0.0 1015125
11:00+30ne455425 0.0 10161442
14:00+32ne554577 0.0 10131855
17:00+27nne4667100 0.1 1013460
20:00+23ne3891100 0.1 1015187
1 december, wed
wed123:00+22ne369548 0.0 1016134
02:00+22ne3493100 0.0 101587
05:00+22nne349663 0.6 101572
08:00+24ne269199 0.8 1016182
11:00+31e455313 0.0 10171555
14:00+31sse455094 0.0 10141343
17:00+27ne347181 0.4 1014268
20:00+23ne4109547 0.9 1016271